Starlink 31388

operational
NORAD ID: 59565 Int'l Des: 2024-076 Owner: SPXS Country: US Constellation: starlink
LEOCIRCULAR

About Starlink 31388

Description loading...

Live Position

Loading 3D Globe...

Upcoming Passes

Altitude History

Altitude vs Time

uPlot chart will show altitude changes over time

Two-Line Element Set

1 59565U 24076B 25305.55496891 .00013068 00000-0 48391-3 0 9997
2 59565 43.0039 12.8738 0001323 294.0259 66.0455 15.27556768 86901
Epoch: Nov 1, 2025 • Age: 23 hours

Current Status

Altitude 493.9 km
Velocity 7.62 km/s
Sub-Earth Point -39.30°S, 76.13°E
Launch Date Apr 23, 2024
Age 1.5 years
Type internet

Technical Details

Classification Payload
Mass 730.00 kg
Dry Mass 700.00 kg
Total Mass 730.00 kg
Length 0.30 m
Diameter 4.10 m
Span 29.00 m
Shape Box + pan
Manufacturer SPXS
Bus Type Starlink V2M
Phase Status In Orbit
Owner/State SPXS/US

Large Constellations

Loading constellations...